TimeMDT,TemperatureF,Dew PointF,Humidity,Sea Level PressureIn,VisibilityMPH,Wind Direction,Wind SpeedMPH,Gust SpeedMPH,PrecipitationIn,Events,Conditions,WindDirDegrees,DateUTC
12:53 AM,45.0,12.9,27,30.18,10.0,SSE,8.1,-,N/A,,Clear,150,2012-10-04 06:53:00
1:53 AM,46.9,12.9,25,30.19,10.0,SE,10.4,-,N/A,,Clear,140,2012-10-04 07:53:00
2:53 AM,46.0,12.9,26,30.19,10.0,SE,10.4,-,N/A,,Clear,140,2012-10-04 08:53:00
3:53 AM,46.9,16.0,29,30.18,10.0,SSE,6.9,-,N/A,,Clear,150,2012-10-04 09:53:00
4:53 AM,45.0,15.1,30,30.20,10.0,SSE,5.8,-,N/A,,Clear,150,2012-10-04 10:53:00
5:53 AM,42.1,17.1,37,30.19,10.0,SE,8.1,-,N/A,,Clear,130,2012-10-04 11:53:00
6:53 AM,39.9,19.0,43,30.20,10.0,SE,8.1,-,N/A,,Clear,130,2012-10-04 12:53:00
7:53 AM,37.9,18.0,45,30.21,10.0,SE,9.2,-,N/A,,Clear,130,2012-10-04 13:53:00
8:53 AM,41.0,17.1,38,30.22,10.0,SE,8.1,-,N/A,,Clear,130,2012-10-04 14:53:00
9:53 AM,48.0,18.0,30,30.22,10.0,SE,5.8,-,N/A,,Clear,140,2012-10-04 15:53:00
10:53 AM,52.0,19.9,28,30.22,10.0,SSE,5.8,-,N/A,,Clear,150,2012-10-04 16:53:00
11:53 AM,54.0,19.0,25,30.22,10.0,ESE,3.5,-,N/A,,Clear,120,2012-10-04 17:53:00
12:53 PM,57.9,19.0,22,30.19,10.0,Calm,Calm,-,N/A,,Clear,0,2012-10-04 18:53:00
1:53 PM,60.1,21.0,22,30.17,10.0,WNW,5.8,-,N/A,,Clear,300,2012-10-04 19:53:00
2:53 PM,61.0,21.0,21,30.14,10.0,NNW,6.9,-,N/A,,Clear,340,2012-10-04 20:53:00
3:53 PM,62.6,19.4,19,30.12,10.0,Variable,6.9,-,N/A,,Clear,0,2012-10-04 21:53:00
4:53 PM,62.1,21.9,21,30.10,10.0,WNW,11.5,-,N/A,,Clear,300,2012-10-04 22:53:00
5:53 PM,62.1,19.9,20,30.10,10.0,WNW,13.8,-,N/A,,Clear,300,2012-10-04 23:53:00
6:53 PM,59.0,16.0,19,30.11,10.0,NW,12.7,-,N/A,,Clear,320,2012-10-05 00:53:00
7:53 PM,55.9,19.0,24,30.12,10.0,WNW,4.6,-,N/A,,Clear,290,2012-10-05 01:53:00
8:53 PM,53.1,21.0,29,30.13,10.0,NW,4.6,-,N/A,,Clear,320,2012-10-05 02:53:00
9:53 PM,51.1,21.9,32,30.12,10.0,West,8.1,-,N/A,,Clear,280,2012-10-05 03:53:00
10:53 PM,48.9,21.0,33,30.13,10.0,NW,5.8,-,N/A,,Clear,320,2012-10-05 04:53:00
11:53 PM,46.0,19.9,35,30.15,10.0,Calm,Calm,-,N/A,,Clear,0,2012-10-05 05:53:00